Location: Newark
(34.0131°N, 4.3314°W)
Time: 01:48:16
(UTC+00:00)

Transit 2A Rocket - Pass Details

Date: 22 October 2019
Orbit: 594 x 909 km, 66.7° (Epoch: 22 November)

Event Time Altitude Azimuth Distance (km) Brightness Sun altitude
Rises 14:09:22 0° 329° (NNW) 2,835 7.8 35.7°
Reaches altitude 10° 14:11:36 10° 326° (NNW) 1,935 7.1 35.4°
Maximum altitude 14:15:51 62° 246° (WSW) 685 6.0 34.8°
Drops below altitude 10° 14:20:17 10° 166° (SSE) 2,006 7.7 34.2°
Sets 14:22:38 0° 163° (SSE) 2,950 8.4 33.9°
